KUIPER-00118 (65154 NORAD) Tracking and Keplerian Element Data

This shows tracking and keplerian element data for the satellite.

Feedback or suggestion? Click here.




ElementValue
Catalog65154
NameKUIPER-00118
Epoch Orbit2087
Epoch Day354.20964931
Epoch Year2025
RAAN167.0451
Inclination51.9001
Eccentricity0.0001518
Argument of Perigee158.3304
Mean Anonmoly201.7723
Mean Motion14.799106
Decay Rate1.952E-05
L11 65154U 25171Y 25354.20964931 .00001952 00000+0 28519-3 0 9994
L22 65154 51.9001 167.0451 0001518 158.3304 201.7723 14.79910600 20878



Live tracking and technical data element details for KUIPER-00118 (NORAD 65154). KUIPER-00118 can be tracked NOW for your location showing map with azimuth and elevation plus other details from your city location.







IsCatalogInMostPopularTable: catalog: 65154, numindb: 6
Update: records affected: 1



GetName: 65154 KUIPER-00118

Hit Count: updated at: Mon, 20 Apr 2026 09:06:51 GMT